| time (UTC) | temp F | wind direction | speed MPH | gust MPH | rain 1hr in | rain 24hr in | rain mn in | humidity % | barometer mb |
| 20260904031537 | 0 | 331 | 5.0 | 9.0 | 0.00 | 0.00 | 0.00 | 998.6 | |
| 20260904030027 | 0 | 330 | 4.0 | 8.0 | 0.00 | 0.00 | 0.00 | 998.7 | |
| 20260904024523 | 0 | 338 | 4.0 | 7.0 | 0.00 | 0.00 | 0.00 | 998.5 | |
| 20260904023022 | 0 | 334 | 4.0 | 6.0 | 0.00 | 0.00 | 0.00 | 998.4 | |
| 20260904021524 | 0 | 326 | 5.0 | 8.0 | 0.00 | 0.00 | 0.00 | 998.2 | |
| 20260904020019 | 0 | 327 | 5.0 | 8.0 | 0.00 | 0.00 | 0.00 | 998.0 | |
| 20260904014517 | 0 | 315 | 3.0 | 8.0 | 0.00 | 0.00 | 0.00 | 998.1 | |
| 20260904013015 | 0 | 304 | 6.0 | 11.0 | 0.00 | 0.00 | 0.00 | 998.1 | |
| 20260904011511 | 0 | 319 | 7.0 | 18.0 | 0.00 | 0.00 | 0.00 | 998.1 | |
| 20260904010006 | 0 | 306 | 7.0 | 18.0 | 0.00 | 0.01 | 0.00 | 998.1 | |
| 20260904004501 | 0 | 309 | 8.0 | 14.0 | 0.00 | 0.01 | 0.00 | 998.0 | |
| 20260904003057 | 0 | 247 | 7.0 | 16.0 | 0.00 | 0.01 | 0.00 | 998.0 | |
| 20260904001554 | 0 | 319 | 7.0 | 16.0 | 0.00 | 0.01 | 0.00 | 997.9 | |
| 20260904000103 | 0 | 298 | 11.0 | 20.0 | 0.00 | 0.01 | 0.00 | 997.9 | |
| 20260903234545 | 0 | 290 | 9.0 | 16.0 | 0.00 | 0.02 | 0.00 | 997.7 | |
| 20260903233040 | 0 | 281 | 10.0 | 18.0 | 0.00 | 0.02 | 0.00 | 997.7 | |
| 20260903231540 | 0 | 310 | 11.0 | 22.0 | 0.00 | 0.02 | 0.00 | 997.6 | |
| 20260903230044 | 0 | 309 | 9.0 | 22.0 | 0.00 | 0.02 | 0.00 | 997.5 | |
| 20260903224533 | 0 | 261 | 12.0 | 21.0 | 0.00 | 0.02 | 0.00 | 997.3 | |
| 20260903223026 | 0 | 328 | 11.0 | 25.0 | 0.00 | 0.02 | 0.00 | 997.0 | |
| 20260903221518 | 0 | 259 | 9.0 | 21.0 | 0.00 | 0.02 | 0.00 | 997.0 | |
| 20260903220024 | 0 | 276 | 8.0 | 19.0 | 0.00 | 0.02 | 0.00 | 996.8 | |
| 20260903214526 | 0 | 295 | 9.0 | 22.0 | 0.00 | 0.02 | 0.00 | 996.8 | |
| 20260903213010 | 0 | 281 | 10.0 | 20.0 | 0.00 | 0.02 | 0.00 | 996.6 | |
| 20260903211510 | 0 | 296 | 6.0 | 16.0 | 0.00 | 0.02 | 0.00 | 996.5 | |
| 20260903204600 | 0 | 271 | 9.0 | 16.0 | 0.00 | 0.02 | 0.00 | 996.4 | |
| 20260903203051 | 0 | 296 | 6.0 | 14.0 | 0.00 | 0.02 | 0.00 | 996.5 | |
| 20260903201556 | 0 | 246 | 9.0 | 15.0 | 0.00 | 0.02 | 0.00 | 996.6 | |
| 20260903200045 | 0 | 307 | 9.0 | 22.0 | 0.00 | 0.02 | 0.00 | 996.5 | |
| 20260903194537 | 0 | 268 | 8.0 | 18.0 | 0.00 | 0.02 | 0.00 | 996.5 | |
| 20260903193032 | 0 | 283 | 8.0 | 21.0 | 0.00 | 0.02 | 0.00 | 996.5 | |
| 20260903191528 | 0 | 222 | 12.0 | 20.0 | 0.00 | 0.02 | 0.00 | 996.4 | |
| 20260903190024 | 0 | 257 | 8.0 | 19.0 | 0.00 | 0.02 | 0.00 | 996.4 | |
| 20260903184519 | 0 | 273 | 8.0 | 16.0 | 0.00 | 0.02 | 0.00 | 996.3 | |
| 20260903183015 | 0 | 262 | 12.0 | 20.0 | 0.00 | 0.02 | 0.00 | 996.3 | |
| 20260903181509 | 0 | 241 | 11.0 | 19.0 | 0.00 | 0.02 | 0.00 | 996.2 | |
| 20260903180012 | 0 | 263 | 11.0 | 19.0 | 0.00 | 0.02 | 0.00 | 996.4 | |
| 20260903174501 | 0 | 281 | 9.0 | 21.0 | 0.00 | 0.02 | 0.00 | 996.7 | |
| 20260903173057 | 0 | 248 | 8.0 | 18.0 | 0.00 | 0.02 | 0.00 | 996.6 | |
| 20260903171552 | 0 | 304 | 9.0 | 14.0 | 0.00 | 0.02 | 0.00 | 996.6 | |
| 20260903170058 | 0 | 265 | 5.0 | 13.0 | 0.00 | 0.02 | 0.00 | 996.6 | |
| 20260903164543 | 0 | 244 | 6.0 | 12.0 | 0.00 | 0.02 | 0.00 | 996.4 | |
| 20260903163038 | 0 | 306 | 6.0 | 10.0 | 0.00 | 0.02 | 0.00 | 996.5 | |
| 20260903161535 | 0 | 320 | 5.0 | 9.0 | 0.00 | 0.02 | 0.00 | 996.5 | |
| 20260903160028 | 0 | 300 | 5.0 | 10.0 | 0.00 | 0.02 | 0.00 | 996.4 | |
| 20260903154529 | 0 | 287 | 5.0 | 11.0 | 0.00 | 0.02 | 0.00 | 996.3 | |
| 20260903153020 | 0 | 301 | 6.0 | 12.0 | 0.00 | 0.02 | 0.00 | 996.3 | |
| 20260903151516 | 0 | 304 | 4.0 | 9.0 | 0.00 | 0.02 | 0.00 | 996.4 | |
| 20260903150013 | 0 | 274 | 3.0 | 7.0 | 0.00 | 0.02 | 0.00 | 996.5 | |
| 20260903144516 | 0 | 294 | 5.0 | 11.0 | 0.00 | 0.02 | 0.00 | 996.4 | |
| 20260903143004 | 0 | 279 | 5.0 | 8.0 | 0.00 | 0.02 | 0.00 | 996.1 | |
| 20260903141558 | 0 | 299 | 4.0 | 8.0 | 0.00 | 0.02 | 0.00 | 995.8 | |
| 20260903140054 | 0 | 321 | 4.0 | 7.0 | 0.00 | 0.02 | 0.00 | 995.7 | |
| 20260903134550 | 0 | 255 | 5.0 | 9.0 | 0.00 | 0.02 | 0.00 | 995.6 | |
| 20260903133045 | 0 | 304 | 5.0 | 9.0 | 0.00 | 0.02 | 0.00 | 995.4 | |
| 20260903131540 | 0 | 309 | 5.0 | 10.0 | 0.00 | 0.02 | 0.00 | 995.3 | |
| 20260903130036 | 0 | 300 | 7.0 | 10.0 | 0.00 | 0.02 | 0.00 | 995.0 | |
| 20260903124533 | 0 | 317 | 4.0 | 7.0 | 0.00 | 0.02 | 0.00 | 994.8 | |
| 20260903123026 | 0 | 308 | 5.0 | 7.0 | 0.00 | 0.02 | 0.00 | 994.6 | |
| 20260903121521 | 0 | 300 | 6.0 | 8.0 | 0.00 | 0.02 | 0.00 | 994.9 | |
| 20260903120017 | 0 | 311 | 5.0 | 10.0 | 0.00 | 0.02 | 0.00 | 994.9 | |
| 20260903114512 | 0 | 336 | 4.0 | 7.0 | 0.00 | 0.02 | 0.00 | 995.0 | |
| 20260903113008 | 0 | 299 | 1.0 | 4.0 | 0.00 | 0.02 | 0.00 | 995.2 | |
| 20260903111503 | 0 | 271 | 1.0 | 4.0 | 0.00 | 0.02 | 0.00 | 995.3 | |
| 20260903110100 | 0 | 290 | 0.0 | 4.0 | 0.00 | 0.02 | 0.00 | 995.2 | |
| 20260903104617 | 0 | 313 | 1.0 | 4.0 | 0.00 | 0.02 | 0.00 | 995.1 | |
| 20260903103100 | 0 | 281 | 1.0 | 5.0 | 0.00 | 0.02 | 0.00 | 995.1 | |
| 20260903101551 | 0 | 343 | 4.0 | 6.0 | 0.00 | 0.02 | 0.00 | 994.9 | |
| 20260903100042 | 0 | 338 | 2.0 | 5.0 | 0.00 | 0.02 | 0.00 | 995.1 | |
| 20260903094539 | 0 | 333 | 5.0 | 7.0 | 0.00 | 0.02 | 0.00 | 995.0 | |
| 20260903093045 | 0 | 340 | 4.0 | 6.0 | 0.00 | 0.02 | 0.00 | 995.1 | |
| 20260903091535 | 0 | 339 | 1.0 | 4.0 | 0.00 | 0.02 | 0.00 | 995.1 | |
| 20260903090031 | 0 | 319 | 0.0 | 0.0 | 0.00 | 0.02 | 0.00 | 994.9 | |
| 20260903084538 | 0 | 213 | 0.0 | 4.0 | 0.00 | 0.02 | 0.00 | 994.8 | |
| 20260903083017 | 0 | 313 | 4.0 | 6.0 | 0.00 | 0.02 | 0.00 | 994.6 | |
| 20260903081512 | 0 | 304 | 1.0 | 5.0 | 0.00 | 0.02 | 0.00 | 994.7 | |
| 20260903080008 | 0 | 286 | 3.0 | 7.0 | 0.00 | 0.02 | 0.00 | 994.5 | |
| 20260903074506 | 0 | 307 | 4.0 | 9.0 | 0.00 | 0.02 | 0.00 | 994.3 | |
| 20260903073059 | 0 | 300 | 4.0 | 9.0 | 0.00 | 0.02 | 0.00 | 994.2 | |
| 20260903071556 | 0 | 307 | 4.0 | 9.0 | 0.00 | 0.02 | 0.00 | 994.1 | |
| 20260903070050 | 0 | 311 | 6.0 | 11.0 | 0.00 | 0.02 | 0.00 | 994.5 | |
| 20260903064550 | 0 | 323 | 5.0 | 12.0 | 0.00 | 0.02 | 0.00 | 994.6 | |
| 20260903063047 | 0 | 310 | 5.0 | 14.0 | 0.00 | 0.02 | 0.00 | 994.4 | |
| 20260903061537 | 0 | 237 | 7.0 | 18.0 | 0.00 | 0.02 | 0.00 | 994.4 | |
| 20260903060031 | 0 | 284 | 9.0 | 20.0 | 0.00 | 0.02 | 0.02 | 994.5 | |
| 20260903054531 | 0 | 278 | 8.0 | 13.0 | 0.00 | 0.02 | 0.02 | 994.7 | |
| 20260903053036 | 0 | 284 | 7.0 | 14.0 | 0.00 | 0.02 | 0.02 | 994.7 | |
| 20260903051529 | 0 | 243 | 8.0 | 18.0 | 0.00 | 0.02 | 0.02 | 994.8 | |
| 20260903050040 | 0 | 300 | 10.0 | 21.0 | 0.00 | 0.02 | 0.02 | 994.9 | |
| 20260903044529 | 0 | 283 | 16.0 | 26.0 | 0.00 | 0.02 | 0.02 | 994.9 | |
| 20260903043028 | 0 | 259 | 15.0 | 23.0 | 0.00 | 0.02 | 0.02 | 994.9 | |
| 20260903041528 | 0 | 238 | 11.0 | 19.0 | 0.00 | 0.02 | 0.02 | 994.9 | |
| 20260903040028 | 0 | 254 | 11.0 | 16.0 | 0.00 | 0.02 | 0.02 | 994.9 | |
| 20260903034533 | 0 | 248 | 11.0 | 18.0 | 0.00 | 0.02 | 0.02 | 994.6 | |
| 20260903033025 | 0 | 250 | 10.0 | 15.0 | 0.00 | 0.02 | 0.02 | 994.3 |